TimeCST,TemperatureF,Dew PointF,Humidity,Sea Level PressureIn,VisibilityMPH,Wind Direction,Wind SpeedMPH,Gust SpeedMPH,PrecipitationIn,Events,Conditions,WindDirDegrees,DateUTC
12:15 AM,42.8,30.2,61,30.21,10.0,South,3.5,-,N/A,,Clear,190,2013-01-20 06:15:00
12:35 AM,39.2,30.2,70,30.22,10.0,Calm,Calm,-,N/A,,Clear,0,2013-01-20 06:35:00
12:55 AM,39.2,30.2,70,30.22,10.0,North,3.5,-,N/A,,Clear,350,2013-01-20 06:55:00
1:55 AM,42.8,30.2,61,30.23,10.0,NE,6.9,-,N/A,,Unknown,40,2013-01-20 07:55:00
2:35 AM,44.6,30.2,57,30.24,10.0,ENE,9.2,-,N/A,,Clear,60,2013-01-20 08:35:00
2:55 AM,44.6,28.4,53,30.24,10.0,ENE,9.2,-,N/A,,Clear,70,2013-01-20 08:55:00
3:35 AM,42.8,28.4,57,30.24,10.0,ENE,9.2,-,N/A,,Clear,70,2013-01-20 09:35:00
3:55 AM,42.8,28.4,57,30.24,10.0,ENE,6.9,-,N/A,,Clear,70,2013-01-20 09:55:00
4:15 AM,41.0,26.6,57,30.24,10.0,ENE,5.8,-,N/A,,Clear,70,2013-01-20 10:15:00
4:36 AM,39.2,26.6,61,30.24,10.0,ENE,3.5,-,N/A,,Clear,60,2013-01-20 10:36:00
5:15 AM,37.4,26.6,65,30.24,10.0,East,3.5,-,N/A,,Clear,80,2013-01-20 11:15:00
5:55 AM,35.6,24.8,65,30.25,10.0,East,3.5,-,N/A,,Clear,90,2013-01-20 11:55:00
6:15 AM,35.6,24.8,65,30.25,10.0,East,4.6,-,N/A,,Clear,90,2013-01-20 12:15:00
6:35 AM,35.6,24.8,65,30.25,10.0,East,4.6,-,N/A,,Clear,80,2013-01-20 12:35:00
7:15 AM,35.6,24.8,65,30.25,10.0,East,4.6,-,N/A,,Clear,80,2013-01-20 13:15:00
7:55 AM,37.4,24.8,60,30.26,10.0,ENE,5.8,-,N/A,,Clear,60,2013-01-20 13:55:00
8:15 AM,39.2,26.6,61,30.26,10.0,East,5.8,-,N/A,,Clear,90,2013-01-20 14:15:00
8:35 AM,39.2,26.6,61,30.26,10.0,East,8.1,-,N/A,,Clear,90,2013-01-20 14:35:00
8:36 AM,39.2,26.6,61,30.26,10.0,East,8.1,-,N/A,,Clear,90,2013-01-20 14:36:00
8:55 AM,41.0,28.4,61,30.26,10.0,East,8.1,-,N/A,,Clear,80,2013-01-20 14:55:00
9:15 AM,42.8,28.4,57,30.26,10.0,East,9.2,-,N/A,,Clear,90,2013-01-20 15:15:00
10:15 AM,46.4,30.2,53,30.26,10.0,ESE,12.7,-,N/A,,Clear,110,2013-01-20 16:15:00
10:35 AM,48.2,28.4,46,30.26,10.0,East,10.4,16.1,N/A,,Clear,100,2013-01-20 16:35:00
11:15 AM,51.8,28.4,41,30.26,10.0,East,8.1,-,N/A,,Clear,80,2013-01-20 17:15:00
11:35 AM,51.8,28.4,41,30.24,10.0,ESE,5.8,-,N/A,,Clear,110,2013-01-20 17:35:00
11:56 AM,53.6,30.2,41,30.24,10.0,SSE,5.8,-,N/A,,Clear,160,2013-01-20 17:56:00
12:15 PM,53.6,30.2,41,30.22,10.0,SSE,5.8,-,N/A,,Clear,160,2013-01-20 18:15:00
12:35 PM,55.4,30.2,38,30.20,10.0,SSW,6.9,-,N/A,,Clear,210,2013-01-20 18:35:00
12:55 PM,57.2,30.2,36,30.19,10.0,SSW,5.8,-,N/A,,Clear,210,2013-01-20 18:55:00
1:35 PM,60.8,32.0,34,30.16,10.0,South,11.5,16.1,N/A,,Clear,180,2013-01-20 19:35:00
1:55 PM,60.8,33.8,36,30.15,10.0,South,10.4,16.1,N/A,,Clear,180,2013-01-20 19:55:00
2:35 PM,60.8,33.8,36,30.14,10.0,South,6.9,-,N/A,,Clear,190,2013-01-20 20:35:00
2:55 PM,60.8,35.6,39,30.13,10.0,South,13.8,-,N/A,,Clear,190,2013-01-20 20:55:00
3:15 PM,60.8,35.6,39,30.14,10.0,SW,10.4,-,N/A,,Clear,220,2013-01-20 21:15:00
3:55 PM,60.8,35.6,39,30.14,10.0,SW,9.2,-,N/A,,Clear,230,2013-01-20 21:55:00
4:15 PM,60.8,35.6,39,30.14,10.0,SW,8.1,-,N/A,,Clear,220,2013-01-20 22:15:00
4:55 PM,57.2,35.6,44,30.14,10.0,SW,6.9,-,N/A,,Clear,220,2013-01-20 22:55:00
5:15 PM,53.6,33.8,47,30.14,10.0,SSW,6.9,-,N/A,,Clear,200,2013-01-20 23:15:00
5:35 PM,53.6,33.8,47,30.14,10.0,SSW,6.9,-,N/A,,Clear,200,2013-01-20 23:35:00
6:15 PM,48.2,33.8,58,30.15,10.0,NNW,6.9,-,N/A,,Clear,330,2013-01-21 00:15:00
6:35 PM,46.4,30.2,53,30.16,10.0,North,9.2,-,N/A,,Clear,360,2013-01-21 00:35:00
6:55 PM,44.6,28.4,53,30.16,10.0,NNW,9.2,-,N/A,,Clear,340,2013-01-21 00:55:00
7:15 PM,44.6,28.4,53,30.17,10.0,North,9.2,-,N/A,,Clear,10,2013-01-21 01:15:00
7:35 PM,44.6,28.4,53,30.17,10.0,North,11.5,-,N/A,,Clear,10,2013-01-21 01:35:00
8:15 PM,42.8,24.8,49,30.18,10.0,NNE,9.2,-,N/A,,Clear,20,2013-01-21 02:15:00
8:35 PM,41.0,21.2,45,30.19,10.0,NNE,8.1,-,N/A,,Clear,20,2013-01-21 02:35:00
8:55 PM,39.2,21.2,49,30.20,10.0,North,10.4,-,N/A,,Clear,10,2013-01-21 02:55:00
9:55 PM,39.2,19.4,45,30.23,10.0,North,10.4,-,N/A,,Unknown,10,2013-01-21 03:55:00
10:15 PM,39.2,17.6,42,30.24,10.0,North,11.5,-,N/A,,Mostly Cloudy,10,2013-01-21 04:15:00
10:35 PM,37.4,17.6,45,30.24,10.0,North,16.1,23.0,N/A,,Scattered Clouds,10,2013-01-21 04:35:00
10:55 PM,35.6,17.6,48,30.25,10.0,North,12.7,-,N/A,,Scattered Clouds,10,2013-01-21 04:55:00
11:15 PM,35.6,15.8,44,30.27,10.0,NNE,10.4,-,N/A,,Clear,20,2013-01-21 05:15:00
11:36 PM,33.8,15.8,48,30.27,10.0,NNE,16.1,-,N/A,,Clear,20,2013-01-21 05:36:00
11:55 PM,32.0,15.8,51,30.27,10.0,NNE,15.0,-,N/A,,Clear,20,2013-01-21 05:55:00